Regional Weather Roundup
Issued by NWS

Home | Current Version | Previous Version | Graphics & Text | Print | Product List | Glossary On
Versions: 1 2 3 4 5 6 7 8 9 10 11 12 13 14 15 16 17 18 19 20 21 22 23 24 25 26 27 28 29 30 31 32 33 34 35 36 37 38 39 40 41 42 43 44 45 46 47 48 49 50
000
ASUS43 KLSX 232107
RWRMO

WEATHER SUMMARY FOR MISSOURI
NATIONAL WEATHER SERVICE SPRINGFIELD MO
300 PM CST TUE JAN 23 2018

NOTE: "FAIR" INDICATES FEW OR NO CLOUDS BELOW 12,000 FEET WITH NO
       SIGNIFICANT WEATHER AND/OR OBSTRUCTIONS TO VISIBILITY.
       CURRENT SKY AND/OR WEATHER CONDITIONS ARE NOT AVAILABLE FOR
       CHILLICOTHE AND FARMINGTON.

MOZ001>031-035>038-043-044-053-054-232200-
...NORTHERN AND WESTERN MISSOURI...

CITY           SKY/WX    TMP DP  RH WIND       PRES   REMARKS
KANSAS CTY INT PTSUNNY   33  25  72 W10G17    30.20R WCI  25
KANSAS C DTWN  MOSUNNY   37  26  64 W13       30.20R WCI  29
LEE`S SUMMIT   SUNNY     35  25  66 W14       30.19R WCI  26
ST JOSEPH      CLOUDY    31  26  82 W12       30.21S WCI  22
CHILLICOTHE      N/A     32  23  69 NW8       30.18R WCI  25
KIRKSVILLE     CLOUDY    31  26  82 NW16      30.13R WCI  20

$$
MOZ066>068-077>081-088>096-101>105-232200-
...SOUTHWEST MISSOURI...

CITY           SKY/WX    TMP DP  RH WIND       PRES   REMARKS
SPRINGFIELD    MOSUNNY   39  28  64 W10       30.17R
JOPLIN         SUNNY     41  30  65 NW10      30.22R
BRANSON        SUNNY     41  27  56 NW10      30.18R

$$
MOZ032>034-039>042-045>050-055>058-069>072-232200-
...CENTRAL MISSOURI...

CITY           SKY/WX    TMP DP  RH WIND       PRES   REMARKS
COLUMBIA       CLOUDY    35  27  72 W18       30.14R WCI  24
JEFFERSON CITY CLOUDY    36  27  69 W12       30.17R WCI  28
ROLLA          CLOUDY    33  27  78 W12       30.14R WCI  24
SEDALIA        MOSUNNY   37  30  75 W10       30.17R WCI  30
WHITEMAN AFB   MOSUNNY   38  25  60 W10       30.14R
WARRENSBURG    MOSUNNY   37  27  65 W7        30.19R
OSAGE BEACH    CLOUDY    36  26  67 W9        30.17S WCI  29

$$
MOZ051-052-059>065-232200-
...EAST CENTRAL MISSOURI...

CITY           SKY/WX    TMP DP  RH WIND       PRES   REMARKS
ST LOUIS INTL  CLOUDY    36  28  73 W17G26    30.11R WCI  26
SPIRIT OF STL  CLOUDY    37  29  72 NW12G22   30.12R WCI  29
ST CHARLES     CLOUDY    36  28  73 W20G29    30.11R WCI  25

$$
MOZ072>076-082>087-097>100-106>115-232200-
...SOUTH CENTRAL AND SOUTHEAST MISSOURI...

CITY           SKY/WX    TMP DP  RH WIND       PRES   REMARKS
CAPE GIRARDEAU CLOUDY    40  27  59 NW12      30.12R
FARMINGTON     CLOUDY    38  27  64 NW13G22   30.12R WCI  30
POPLAR BLUFF   FAIR      46  28  49 NW8       30.13R
WEST PLAINS    SUNNY     41  28  60 W8        30.15R

$$


USA.gov is the U.S. government's official web portal to all federal, state and local government web resources and services.